EW8300 Weather Reports


time (UTC)temp
F
wind
direction
speed
knots
gust
knots
rain 1hr
in
rain 24hr
in
rain mn
in
humidity
%
barometer
mb
20260905234520 86 55 0.0 0.9 0.00 0.00 0.00 75 1008.6
20260905233031 87 67 0.0 0.9 0.00 0.00 0.00 73 1008.5
20260905231519 87 62 0.0 0.0 0.00 0.00 0.00 70 1008.6
20260905230120 88 62 0.0 0.9 0.00 0.00 0.00 69 1008.7
20260905224608 89 41 0.0 0.9 0.00 0.00 0.00 66 1008.7
20260905223032 89 49 0.0 0.0 0.00 0.00 0.00 65 1008.4
20260905221558 91 69 0.0 1.7 0.00 0.00 0.00 61 1008.4
20260905220017 94 216 0.0 3.5 0.00 0.00 0.00 55 1008.3
20260905214506 94 210 0.0 0.0 0.00 0.00 0.00 52 1008.2
20260905213011 94 220 0.0 2.6 0.00 0.00 0.00 52 1008.4
20260905211518 95 208 0.0 0.9 0.00 0.00 0.00 51 1008.5
20260905210048 95 226 0.0 7.0 0.00 0.00 0.00 51 1008.7
20260905204528 94 185 0.0 4.3 0.00 0.00 0.00 52 1008.8
20260905203009 95 92 0.0 2.6 0.00 0.00 0.00 50 1008.8
20260905201551 95 221 0.0 0.0 0.00 0.00 0.00 49 1009.0
20260905200109 94 174 0.0 0.0 0.00 0.00 0.00 51 1009.1
20260905194608 94 239 0.0 5.2 0.00 0.00 0.00 49 1009.4
20260905193012 95 249 0.0 0.0 0.00 0.00 0.00 49 1009.6
20260905191609 93 220 0.0 1.7 0.00 0.00 0.00 51 1009.8
20260905190033 94 164 0.0 4.3 0.00 0.00 0.00 51 1010.1
20260905184535 92 149 0.0 2.6 0.00 0.00 0.00 50 1010.2
20260905183027 92 212 0.0 4.3 0.00 0.00 0.00 50 1010.3
20260905181553 94 62 0.0 1.7 0.00 0.00 0.00 49 1010.4
20260905180008 92 224 0.0 1.7 0.00 0.00 0.00 51 1010.4
20260905173008 91 222 0.0 1.7 0.00 0.00 0.00 52 1010.8
20260905171541 90 228 0.0 1.7 0.00 0.00 0.00 53 1011.1
20260905170006 90 55 0.0 0.9 0.00 0.00 0.00 52 1011.3
20260905164524 87 56 0.0 2.6 0.00 0.00 0.00 56 1011.5
20260905163006 89 216 0.0 1.7 0.00 0.00 0.00 51 1011.7
20260905161614 87 109 0.0 0.0 0.00 0.00 0.00 57 1011.8
20260905160016 87 76 0.0 0.0 0.00 0.00 0.00 55 1011.7
20260905154514 86 107 0.0 0.0 0.00 0.00 0.00 58 1011.7
20260905153014 85 62 0.0 0.0 0.00 0.00 0.00 57 1011.7
20260905151558 85 52 0.0 2.6 0.00 0.00 0.00 55 1011.4
20260905150111 83 70 0.0 5.2 0.00 0.00 0.00 58 1011.4
20260905144531 83 63 0.0 0.9 0.00 0.00 0.00 62 1011.6
20260905143028 84 63 0.0 2.6 0.00 0.00 0.00 62 1011.7
20260905141533 81 52 0.0 0.0 0.00 0.00 0.00 63 1012.0
20260905140115 80 60 0.0 2.6 0.00 0.00 0.00 66 1012.3
20260905134607 81 114 0.0 1.7 0.00 0.00 0.00 66 1012.6
20260905133024 77 95 0.0 4.3 0.00 0.00 0.00 70 1012.7
20260905131604 76 85 0.0 0.9 0.00 0.00 0.00 74 1013.0
20260905130115 76 89 0.0 0.9 0.00 0.00 0.00 75 1013.1
20260905124615 73 37 0.0 3.5 0.00 0.00 0.00 79 1013.2
20260905123113 72 64 0.0 0.0 0.00 0.00 0.00 82 1013.6
20260905121558 72 91 0.0 0.0 0.00 0.00 0.00 83 1013.7
20260905120008 74 97 0.0 0.0 0.00 0.00 0.00 81 1013.4
20260905114600 73 146 0.0 0.0 0.00 0.00 0.00 81 1013.2
20260905113051 73 103 0.0 0.0 0.00 0.00 0.00 80 1013.1
20260905111650 73 122 0.0 3.5 0.00 0.00 0.00 82 1013.0
20260905110053 74 86 0.0 7.8 0.00 0.00 0.00 85 1013.0
20260905104551 72 168 0.0 3.5 0.00 0.00 0.00 93 1012.1
20260905103057 72 99 0.0 0.0 0.00 0.00 0.00 93 1010.3
20260905101651 73 100 0.0 0.0 0.00 0.00 0.00 92 1010.6
20260905100114 73 105 0.0 0.0 0.00 0.00 0.00 94 1011.0
20260905094550 72 100 0.0 0.0 0.00 0.00 0.00 92 1011.3
20260905093044 73 102 0.0 0.0 0.00 0.00 0.00 92 1011.2
20260905091502 72 97 0.0 0.0 0.00 0.00 0.00 92 1010.8
20260905090003 72 102 0.0 0.0 0.00 0.00 0.00 91 1010.5
20260905084502 72 102 0.0 0.0 0.00 0.00 0.00 91 1010.5
20260905083001 73 102 0.0 0.0 0.00 0.00 0.00 91 1010.6
20260905081502 72 97 0.0 0.0 0.00 0.00 0.00 91 1010.4
20260905080101 72 64 0.0 0.0 0.00 0.00 0.00 91 1010.2
20260905074559 72 64 0.0 0.0 0.00 0.00 0.00 91 1010.0
20260905073100 73 64 0.0 0.0 0.00 0.00 0.00 91 1010.0
20260905071503 73 108 0.0 0.0 0.00 0.00 0.00 90 1010.1
20260905070003 73 108 0.0 0.0 0.00 0.00 0.00 90 1010.3
20260905064617 73 106 0.0 0.0 0.00 0.00 0.00 91 1010.6
20260905063058 73 92 0.0 0.0 0.00 0.00 0.00 91 1010.7
20260905061656 73 92 0.0 0.0 0.00 0.00 0.00 90 1010.9
20260905060059 73 109 0.0 0.0 0.00 0.00 0.00 91 1011.0
20260905054656 73 103 0.0 0.0 0.00 0.00 0.00 90 1011.2
20260905053052 74 103 0.0 0.0 0.00 0.00 0.00 91 1011.4
20260905051651 73 83 0.0 0.0 0.00 0.00 0.00 90 1011.5
20260905050051 74 83 0.0 0.0 0.00 0.00 0.00 89 1011.5
20260905044604 74 100 0.0 0.0 0.00 0.00 0.00 91 1011.6
20260905043049 74 96 0.0 0.0 0.00 0.00 0.00 89 1011.7
20260905041647 75 96 0.0 0.0 0.00 0.00 0.00 89 1011.7
20260905040059 75 60 0.0 0.0 0.00 0.00 0.00 88 1011.6
20260905034550 76 60 0.0 0.0 0.00 0.00 0.00 88 1011.7
20260905033044 75 73 0.0 0.0 0.00 0.00 0.00 88 1011.6
20260905031502 76 73 0.0 0.0 0.00 0.00 0.00 88 1011.7
20260905030005 76 102 0.0 0.0 0.00 0.00 0.00 88 1011.5
20260905024501 76 99 0.0 0.0 0.00 0.00 0.00 87 1011.5
20260905023100 77 88 0.0 0.0 0.00 0.00 0.00 87 1011.5
20260905021701 77 88 0.0 0.0 0.00 0.00 0.00 86 1011.6
20260905020059 77 83 0.0 0.0 0.00 0.00 0.00 85 1011.6
20260905014557 78 81 0.0 0.0 0.00 0.00 0.00 83 1011.5
20260905013102 78 142 0.0 0.0 0.00 0.00 0.00 83 1011.5
20260905011657 79 142 0.0 0.0 0.00 0.00 0.00 83 1011.3
20260905010104 80 70 0.0 0.0 0.00 0.00 0.00 82 1011.1
20260905004556 80 81 0.0 0.0 0.00 0.00 0.00 81 1011.1
20260905003054 81 116 0.0 0.9 0.00 0.00 0.00 79 1010.8
20260905001654 82 114 0.0 0.0 0.00 0.00 0.00 78 1010.8
20260905000051 84 113 0.0 0.9 0.00 0.00 0.00 74 1010.5